M I D A S
Marine Information and Data Acquisition System
Tripno 1758 of the Zeeleeuw from 2009-08-31 08:15:00 to 2009-08-31 12:35:00
Back to CruiseResearch ActivitiesStationsMapUnderway DataData graphs

EquipmentUnitsComment
TimeDGPSUTC
LatitudeDGPSDM.mWGS84
LongitudeDGPSDM.mWGS84
TemperatureSBE03/SBE38deg celciusITS90
ConductivitySBE21S/mITS90
SalinitySBE21 Practical Salinity Units
ChlorophylAChelsea fluorimeterg/lCalibrated in Aceton
Missing or incorrect values are displayed as -999
Sea surface data collected by the RV Zeeleeuw from 2009-08-31 08:15:00 to 2009-08-31 12:35:00
Time Latitude Longitude Temperature Conductivity Salinity ChlorophylA
2009-08-31 08:15:20 51°26.538 2°49.318 -999 -999 -999 -999
2009-08-31 08:15:30 51°26.564 2°49.326 -999 -999 -999 -999
2009-08-31 08:15:40 51°26.589 2°49.335 -999 -999 -999 -999
2009-08-31 08:15:50 51°26.613 2°49.344 -999 -999 -999 -999
2009-08-31 08:16:00 51°26.638 2°49.353 -999 -999 -999 -999
2009-08-31 08:16:10 51°26.66 2°49.363 -999 -999 -999 -999
2009-08-31 08:16:20 51°26.681 2°49.373 -999 -999 -999 -999
2009-08-31 08:16:30 51°26.7 2°49.382 -999 -999 -999 -999
2009-08-31 08:16:40 51°26.717 2°49.393 -999 -999 -999 -999
2009-08-31 08:16:50 51°26.734 2°49.404 -999 -999 -999 -999
2009-08-31 08:17:00 51°26.751 2°49.413 -999 -999 -999 -999
2009-08-31 08:17:10 51°26.766 2°49.422 -999 -999 -999 -999
2009-08-31 08:17:20 51°26.781 2°49.427 -999 -999 -999 -999
2009-08-31 08:17:30 51°26.793 2°49.432 -999 -999 -999 -999
2009-08-31 08:17:40 51°26.804 2°49.435 -999 -999 -999 -999
2009-08-31 08:17:50 51°26.812 2°49.438 -999 -999 -999 -999
2009-08-31 08:18:00 51°26.816 2°49.44 -999 -999 -999 -999
2009-08-31 08:18:10 51°26.821 2°49.441 -999 -999 -999 -999
2009-08-31 08:18:20 51°26.825 2°49.443 -999 -999 -999 -999
2009-08-31 08:18:30 51°26.829 2°49.445 -999 -999 -999 -999
2009-08-31 08:18:40 51°26.833 2°49.446 -999 -999 -999 -999
2009-08-31 08:18:50 51°26.836 2°49.448 -999 -999 -999 -999
2009-08-31 08:19:00 51°26.84 2°49.449 -999 -999 -999 -999
2009-08-31 08:19:10 51°26.843 2°49.45 -999 -999 -999 -999
2009-08-31 08:19:20 51°26.846 2°49.451 -999 -999 -999 -999
2009-08-31 08:19:30 51°26.849 2°49.453 -999 -999 -999 -999
2009-08-31 08:19:40 51°26.852 2°49.454 -999 -999 -999 -999
2009-08-31 08:19:50 51°26.854 2°49.455 -999 -999 -999 -999
2009-08-31 08:20:00 51°26.857 2°49.457 -999 -999 -999 -999
2009-08-31 08:20:10 51°26.86 2°49.458 -999 -999 -999 -999
2009-08-31 08:20:20 51°26.863 2°49.459 -999 -999 -999 -999
2009-08-31 08:20:30 51°26.865 2°49.461 -999 -999 -999 -999
2009-08-31 08:20:40 51°26.868 2°49.463 -999 -999 -999 -999
2009-08-31 08:20:50 51°26.87 2°49.464 -999 -999 -999 -999
2009-08-31 08:21:00 51°26.872 2°49.466 -999 -999 -999 -999
2009-08-31 08:21:10 51°26.874 2°49.469 -999 -999 -999 -999
2009-08-31 08:21:20 51°26.876 2°49.471 -999 -999 -999 -999
2009-08-31 08:21:30 51°26.879 2°49.473 -999 -999 -999 -999
2009-08-31 08:21:40 51°26.88 2°49.475 -999 -999 -999 -999
2009-08-31 08:21:50 51°26.882 2°49.478 -999 -999 -999 -999
2009-08-31 08:22:00 51°26.884 2°49.48 -999 -999 -999 -999
2009-08-31 08:22:10 51°26.886 2°49.482 -999 -999 -999 -999
2009-08-31 08:22:20 51°26.888 2°49.485 -999 -999 -999 -999
2009-08-31 08:22:30 51°26.89 2°49.487 -999 -999 -999 -999
2009-08-31 08:22:40 51°26.892 2°49.489 -999 -999 -999 -999
2009-08-31 08:22:50 51°26.894 2°49.492 -999 -999 -999 -999
2009-08-31 08:23:00 51°26.895 2°49.494 -999 -999 -999 -999
2009-08-31 08:23:10 51°26.897 2°49.496 -999 -999 -999 -999
2009-08-31 08:23:20 51°26.899 2°49.499 -999 -999 -999 -999
2009-08-31 08:23:30 51°26.901 2°49.502 -999 -999 -999 -999
2009-08-31 08:23:40 51°26.903 2°49.505 -999 -999 -999 -999
2009-08-31 08:23:50 51°26.905 2°49.508 -999 -999 -999 -999
2009-08-31 08:24:00 51°26.907 2°49.511 -999 -999 -999 -999
2009-08-31 08:24:10 51°26.909 2°49.514 -999 -999 -999 -999
2009-08-31 08:24:20 51°26.911 2°49.517 -999 -999 -999 -999
2009-08-31 08:24:30 51°26.913 2°49.521 -999 -999 -999 -999
2009-08-31 08:24:40 51°26.915 2°49.524 -999 -999 -999 -999
2009-08-31 08:24:50 51°26.917 2°49.527 -999 -999 -999 -999
2009-08-31 08:25:00 51°26.919 2°49.53 -999 -999 -999 -999
2009-08-31 08:25:10 51°26.921 2°49.534 -999 -999 -999 -999
2009-08-31 08:25:20 51°26.922 2°49.537 -999 -999 -999 -999
2009-08-31 08:25:30 51°26.924 2°49.54 -999 -999 -999 -999
2009-08-31 08:25:40 51°26.926 2°49.544 -999 -999 -999 -999
2009-08-31 08:25:50 51°26.928 2°49.548 -999 -999 -999 -999
2009-08-31 08:26:00 51°26.93 2°49.551 -999 -999 -999 -999
2009-08-31 08:26:10 51°26.932 2°49.555 -999 -999 -999 -999
2009-08-31 08:26:20 51°26.934 2°49.559 -999 -999 -999 -999
2009-08-31 08:26:30 51°26.935 2°49.563 -999 -999 -999 -999
2009-08-31 08:26:40 51°26.937 2°49.566 -999 -999 -999 -999
2009-08-31 08:26:50 51°26.939 2°49.571 -999 -999 -999 -999
2009-08-31 08:27:00 51°26.94 2°49.575 -999 -999 -999 -999
2009-08-31 08:27:10 51°26.942 2°49.579 -999 -999 -999 -999
2009-08-31 08:27:20 51°26.944 2°49.583 -999 -999 -999 -999
2009-08-31 08:27:30 51°26.946 2°49.587 -999 -999 -999 -999
2009-08-31 08:27:40 51°26.947 2°49.591 -999 -999 -999 -999
2009-08-31 08:27:50 51°26.949 2°49.596 -999 -999 -999 -999
2009-08-31 08:28:00 51°26.951 2°49.6 -999 -999 -999 -999
2009-08-31 08:28:10 51°26.953 2°49.604 -999 -999 -999 -999
2009-08-31 08:28:20 51°26.955 2°49.608 -999 -999 -999 -999
2009-08-31 08:28:30 51°26.957 2°49.611 -999 -999 -999 -999
2009-08-31 08:28:40 51°26.96 2°49.613 -999 -999 -999 -999
2009-08-31 08:28:50 51°26.964 2°49.612 -999 -999 -999 -999
2009-08-31 08:29:00 51°26.969 2°49.608 -999 -999 -999 -999
2009-08-31 08:29:10 51°26.973 2°49.601 -999 -999 -999 -999
2009-08-31 08:29:20 51°26.976 2°49.592 -999 -999 -999 -999
2009-08-31 08:29:30 51°26.978 2°49.581 -999 -999 -999 -999
2009-08-31 08:29:40 51°26.978 2°49.571 -999 -999 -999 -999
2009-08-31 08:29:50 51°26.976 2°49.56 -999 -999 -999 -999
2009-08-31 08:30:00 51°26.971 2°49.55 -999 -999 -999 -999
2009-08-31 08:30:10 51°26.965 2°49.543 -999 -999 -999 -999
2009-08-31 08:30:20 51°26.957 2°49.539 -999 -999 -999 -999
2009-08-31 08:30:30 51°26.949 2°49.538 -999 -999 -999 -999
2009-08-31 08:30:40 51°26.939 2°49.54 -999 -999 -999 -999
2009-08-31 08:30:50 51°26.924 2°49.542 -999 -999 -999 -999
2009-08-31 08:31:00 51°26.903 2°49.543 -999 -999 -999 -999
2009-08-31 08:31:10 51°26.88 2°49.544 -999 -999 -999 -999
2009-08-31 08:31:20 51°26.854 2°49.545 -999 -999 -999 -999
2009-08-31 08:31:30 51°26.826 2°49.547 -999 -999 -999 -999
2009-08-31 08:31:40 51°26.798 2°49.548 -999 -999 -999 -999
2009-08-31 08:31:50 51°26.769 2°49.549 -999 -999 -999 -999
2009-08-31 08:32:00 51°26.739 2°49.551 -999 -999 -999 -999
2009-08-31 08:32:10 51°26.71 2°49.554 -999 -999 -999 -999
2009-08-31 08:32:20 51°26.68 2°49.556 -999 -999 -999 -999
2009-08-31 08:32:30 51°26.65 2°49.56 -999 -999 -999 -999
2009-08-31 08:32:40 51°26.62 2°49.564 -999 -999 -999 -999
2009-08-31 08:32:50 51°26.591 2°49.568 -999 -999 -999 -999
2009-08-31 08:33:00 51°26.561 2°49.573 -999 -999 -999 -999
2009-08-31 08:33:10 51°26.531 2°49.579 -999 -999 -999 -999
2009-08-31 08:33:20 51°26.502 2°49.585 -999 -999 -999 -999
2009-08-31 08:33:30 51°26.472 2°49.592 -999 -999 -999 -999
2009-08-31 08:33:40 51°26.442 2°49.599 -999 -999 -999 -999
2009-08-31 08:33:50 51°26.412 2°49.605 -999 -999 -999 -999
2009-08-31 08:34:00 51°26.382 2°49.612 -999 -999 -999 -999
2009-08-31 08:34:10 51°26.353 2°49.62 -999 -999 -999 -999
2009-08-31 08:34:20 51°26.323 2°49.628 -999 -999 -999 -999
2009-08-31 08:34:30 51°26.293 2°49.637 -999 -999 -999 -999
2009-08-31 08:34:40 51°26.263 2°49.645 -999 -999 -999 -999
2009-08-31 08:34:50 51°26.234 2°49.653 -999 -999 -999 -999
2009-08-31 08:35:00 51°26.204 2°49.662 -999 -999 -999 -999
2009-08-31 08:35:10 51°26.175 2°49.672 -999 -999 -999 -999
2009-08-31 08:35:20 51°26.146 2°49.682 -999 -999 -999 -999
2009-08-31 08:35:30 51°26.117 2°49.692 -999 -999 -999 -999
2009-08-31 08:35:40 51°26.088 2°49.702 -999 -999 -999 -999
2009-08-31 08:35:50 51°26.058 2°49.712 -999 -999 -999 -999
2009-08-31 08:36:00 51°26.029 2°49.722 -999 -999 -999 -999
2009-08-31 08:36:10 51°26 2°49.732 -999 -999 -999 -999
2009-08-31 08:36:20 51°25.971 2°49.743 -999 -999 -999 -999
2009-08-31 08:36:30 51°25.942 2°49.753 -999 -999 -999 -999
2009-08-31 08:36:40 51°25.912 2°49.762 -999 -999 -999 -999
2009-08-31 08:36:50 51°25.883 2°49.772 -999 -999 -999 -999
2009-08-31 08:37:00 51°25.854 2°49.782 -999 -999 -999 -999
2009-08-31 08:37:10 51°25.824 2°49.792 -999 -999 -999 -999
2009-08-31 08:37:20 51°25.795 2°49.802 -999 -999 -999 -999
2009-08-31 08:37:30 51°25.766 2°49.812 -999 -999 -999 -999
2009-08-31 08:37:40 51°25.737 2°49.821 -999 -999 -999 -999
2009-08-31 08:37:50 51°25.707 2°49.83 -999 -999 -999 -999
2009-08-31 08:38:00 51°25.678 2°49.84 -999 -999 -999 -999
2009-08-31 08:38:10 51°25.648 2°49.849 -999 -999 -999 -999
2009-08-31 08:38:20 51°25.619 2°49.858 -999 -999 -999 -999
2009-08-31 08:38:30 51°25.59 2°49.867 -999 -999 -999 -999
2009-08-31 08:38:40 51°25.561 2°49.877 -999 -999 -999 -999
2009-08-31 08:38:50 51°25.532 2°49.888 -999 -999 -999 -999
2009-08-31 08:39:00 51°25.502 2°49.898 -999 -999 -999 -999
2009-08-31 08:39:10 51°25.473 2°49.908 -999 -999 -999 -999
2009-08-31 08:39:20 51°25.444 2°49.917 -999 -999 -999 -999
2009-08-31 08:39:30 51°25.415 2°49.927 -999 -999 -999 -999
2009-08-31 08:39:40 51°25.386 2°49.936 -999 -999 -999 -999
2009-08-31 08:39:50 51°25.356 2°49.945 -999 -999 -999 -999
2009-08-31 08:40:00 51°25.327 2°49.955 -999 -999 -999 -999
2009-08-31 08:40:10 51°25.298 2°49.965 -999 -999 -999 -999
2009-08-31 08:40:20 51°25.269 2°49.975 -999 -999 -999 -999
2009-08-31 08:40:30 51°25.24 2°49.985 -999 -999 -999 -999
2009-08-31 08:40:40 51°25.211 2°49.995 -999 -999 -999 -999
2009-08-31 08:40:50 51°25.181 2°50.005 -999 -999 -999 -999
2009-08-31 08:41:00 51°25.152 2°50.015 -999 -999 -999 -999
2009-08-31 08:41:10 51°25.123 2°50.024 -999 -999 -999 -999
2009-08-31 08:41:20 51°25.093 2°50.034 -999 -999 -999 -999
2009-08-31 08:41:30 51°25.064 2°50.043 -999 -999 -999 -999
2009-08-31 08:41:40 51°25.035 2°50.052 -999 -999 -999 -999
2009-08-31 08:41:50 51°25.005 2°50.063 -999 -999 -999 -999
2009-08-31 08:42:00 51°24.976 2°50.073 -999 -999 -999 -999
2009-08-31 08:42:10 51°24.946 2°50.083 -999 -999 -999 -999
2009-08-31 08:42:20 51°24.917 2°50.094 -999 -999 -999 -999
2009-08-31 08:42:30 51°24.887 2°50.103 -999 -999 -999 -999
2009-08-31 08:42:40 51°24.858 2°50.112 -999 -999 -999 -999
2009-08-31 08:42:50 51°24.829 2°50.123 -999 -999 -999 -999
2009-08-31 08:43:00 51°24.799 2°50.133 -999 -999 -999 -999
2009-08-31 08:43:10 51°24.77 2°50.144 -999 -999 -999 -999
2009-08-31 08:43:20 51°24.741 2°50.154 -999 -999 -999 -999
2009-08-31 08:43:30 51°24.711 2°50.163 -999 -999 -999 -999
2009-08-31 08:43:40 51°24.682 2°50.173 -999 -999 -999 -999
2009-08-31 08:43:50 51°24.653 2°50.183 -999 -999 -999 -999
2009-08-31 08:44:00 51°24.624 2°50.193 -999 -999 -999 -999
2009-08-31 08:44:10 51°24.594 2°50.203 -999 -999 -999 -999
2009-08-31 08:44:20 51°24.565 2°50.213 -999 -999 -999 -999
2009-08-31 08:44:30 51°24.535 2°50.223 -999 -999 -999 -999
2009-08-31 08:44:40 51°24.506 2°50.233 -999 -999 -999 -999
2009-08-31 08:44:50 51°24.476 2°50.243 -999 -999 -999 -999
2009-08-31 08:45:00 51°24.447 2°50.253 -999 -999 -999 -999
2009-08-31 08:45:10 51°24.417 2°50.263 -999 -999 -999 -999
2009-08-31 08:45:20 51°24.388 2°50.272 -999 -999 -999 -999
2009-08-31 08:45:30 51°24.358 2°50.283 -999 -999 -999 -999
2009-08-31 08:45:40 51°24.329 2°50.292 -999 -999 -999 -999
2009-08-31 08:45:50 51°24.3 2°50.301 -999 -999 -999 -999
2009-08-31 08:46:00 51°24.27 2°50.311 -999 -999 -999 -999
2009-08-31 08:46:10 51°24.24 2°50.319 -999 -999 -999 -999
2009-08-31 08:46:20 51°24.211 2°50.329 -999 -999 -999 -999
2009-08-31 08:46:30 51°24.182 2°50.337 -999 -999 -999 -999
2009-08-31 08:46:40 51°24.152 2°50.346 -999 -999 -999 -999
2009-08-31 08:46:50 51°24.123 2°50.356 -999 -999 -999 -999
2009-08-31 08:47:00 51°24.094 2°50.365 -999 -999 -999 -999
2009-08-31 08:47:10 51°24.065 2°50.375 -999 -999 -999 -999
2009-08-31 08:47:20 51°24.035 2°50.385 -999 -999 -999 -999
2009-08-31 08:47:30 51°24.006 2°50.394 -999 -999 -999 -999
2009-08-31 08:47:40 51°23.977 2°50.403 -999 -999 -999 -999
2009-08-31 08:47:50 51°23.947 2°50.413 -999 -999 -999 -999
2009-08-31 08:48:00 51°23.918 2°50.423 -999 -999 -999 -999
2009-08-31 08:48:10 51°23.888 2°50.432 -999 -999 -999 -999
2009-08-31 08:48:20 51°23.859 2°50.441 -999 -999 -999 -999
2009-08-31 08:48:30 51°23.829 2°50.45 -999 -999 -999 -999
2009-08-31 08:48:40 51°23.8 2°50.459 -999 -999 -999 -999
2009-08-31 08:48:50 51°23.771 2°50.468 -999 -999 -999 -999
2009-08-31 08:49:00 51°23.741 2°50.478 -999 -999 -999 -999
2009-08-31 08:49:10 51°23.712 2°50.487 -999 -999 -999 -999
2009-08-31 08:49:20 51°23.683 2°50.496 -999 -999 -999 -999
2009-08-31 08:49:30 51°23.653 2°50.506 -999 -999 -999 -999
2009-08-31 08:49:40 51°23.624 2°50.515 -999 -999 -999 -999
2009-08-31 08:49:50 51°23.594 2°50.525 -999 -999 -999 -999
2009-08-31 08:50:00 51°23.565 2°50.534 -999 -999 -999 -999
2009-08-31 08:50:10 51°23.536 2°50.543 -999 -999 -999 -999
2009-08-31 08:50:20 51°23.506 2°50.552 -999 -999 -999 -999
2009-08-31 08:50:30 51°23.477 2°50.561 -999 -999 -999 -999
2009-08-31 08:50:40 51°23.447 2°50.57 -999 -999 -999 -999
2009-08-31 08:50:50 51°23.418 2°50.579 -999 -999 -999 -999
2009-08-31 08:51:00 51°23.388 2°50.589 -999 -999 -999 -999
2009-08-31 08:51:10 51°23.359 2°50.597 -999 -999 -999 -999
2009-08-31 08:51:20 51°23.329 2°50.607 -999 -999 -999 -999
2009-08-31 08:51:30 51°23.3 2°50.615 -999 -999 -999 -999
2009-08-31 08:51:40 51°23.27 2°50.624 -999 -999 -999 -999
2009-08-31 08:51:50 51°23.241 2°50.633 -999 -999 -999 -999
2009-08-31 08:52:00 51°23.211 2°50.643 -999 -999 -999 -999
2009-08-31 08:52:10 51°23.182 2°50.653 -999 -999 -999 -999
2009-08-31 08:52:20 51°23.152 2°50.662 -999 -999 -999 -999
2009-08-31 08:52:30 51°23.123 2°50.671 -999 -999 -999 -999
2009-08-31 08:52:40 51°23.094 2°50.679 -999 -999 -999 -999
2009-08-31 08:52:50 51°23.064 2°50.688 -999 -999 -999 -999
2009-08-31 08:53:00 51°23.034 2°50.697 -999 -999 -999 -999
2009-08-31 08:53:10 51°23.005 2°50.706 -999 -999 -999 -999
2009-08-31 08:53:20 51°22.975 2°50.715 -999 -999 -999 -999
2009-08-31 08:53:30 51°22.946 2°50.725 -999 -999 -999 -999
2009-08-31 08:53:40 51°22.916 2°50.735 -999 -999 -999 -999
2009-08-31 08:53:50 51°22.887 2°50.744 -999 -999 -999 -999
2009-08-31 08:54:00 51°22.857 2°50.754 -999 -999 -999 -999
2009-08-31 08:54:10 51°22.827 2°50.762 -999 -999 -999 -999
2009-08-31 08:54:20 51°22.798 2°50.772 -999 -999 -999 -999
2009-08-31 08:54:30 51°22.768 2°50.782 -999 -999 -999 -999
2009-08-31 08:54:40 51°22.739 2°50.792 -999 -999 -999 -999
2009-08-31 08:54:50 51°22.709 2°50.802 -999 -999 -999 -999
2009-08-31 08:55:00 51°22.68 2°50.812 -999 -999 -999 -999
2009-08-31 08:55:10 51°22.65 2°50.823 -999 -999 -999 -999
2009-08-31 08:55:20 51°22.62 2°50.833 -999 -999 -999 -999
2009-08-31 08:55:30 51°22.591 2°50.843 -999 -999 -999 -999
2009-08-31 08:55:40 51°22.561 2°50.854 -999 -999 -999 -999
2009-08-31 08:55:50 51°22.532 2°50.865 -999 -999 -999 -999
2009-08-31 08:56:00 51°22.503 2°50.875 -999 -999 -999 -999
2009-08-31 08:56:10 51°22.473 2°50.886 -999 -999 -999 -999
2009-08-31 08:56:20 51°22.444 2°50.897 -999 -999 -999 -999
2009-08-31 08:56:30 51°22.415 2°50.907 -999 -999 -999 -999
2009-08-31 08:56:40 51°22.386 2°50.917 -999 -999 -999 -999
2009-08-31 08:56:50 51°22.356 2°50.928 -999 -999 -999 -999
2009-08-31 08:57:00 51°22.327 2°50.938 -999 -999 -999 -999
2009-08-31 08:57:10 51°22.298 2°50.948 -999 -999 -999 -999
2009-08-31 08:57:20 51°22.269 2°50.958 -999 -999 -999 -999
2009-08-31 08:57:30 51°22.239 2°50.968 -999 -999 -999 -999
2009-08-31 08:57:40 51°22.21 2°50.977 -999 -999 -999 -999
2009-08-31 08:57:50 51°22.181 2°50.987 -999 -999 -999 -999
2009-08-31 08:58:00 51°22.152 2°50.996 -999 -999 -999 -999
2009-08-31 08:58:10 51°22.122 2°51.006 -999 -999 -999 -999
2009-08-31 08:58:20 51°22.093 2°51.015 -999 -999 -999 -999
2009-08-31 08:58:30 51°22.064 2°51.025 -999 -999 -999 -999
2009-08-31 08:58:40 51°22.035 2°51.034 -999 -999 -999 -999
2009-08-31 08:58:50 51°22.005 2°51.044 -999 -999 -999 -999
2009-08-31 08:59:00 51°21.976 2°51.054 -999 -999 -999 -999
2009-08-31 08:59:10 51°21.947 2°51.063 -999 -999 -999 -999
2009-08-31 08:59:20 51°21.918 2°51.072 -999 -999 -999 -999
2009-08-31 08:59:30 51°21.888 2°51.082 -999 -999 -999 -999
2009-08-31 08:59:40 51°21.859 2°51.09 -999 -999 -999 -999
2009-08-31 08:59:50 51°21.829 2°51.099 -999 -999 -999 -999
2009-08-31 09:00:00 51°21.8 2°51.108 -999 -999 -999 -999
2009-08-31 09:00:10 51°21.771 2°51.117 -999 -999 -999 -999
2009-08-31 09:00:20 51°21.741 2°51.125 -999 -999 -999 -999
2009-08-31 09:00:30 51°21.712 2°51.134 -999 -999 -999 -999
2009-08-31 09:00:40 51°21.683 2°51.143 -999 -999 -999 -999
2009-08-31 09:00:50 51°21.653 2°51.15 -999 -999 -999 -999
2009-08-31 09:01:00 51°21.624 2°51.159 -999 -999 -999 -999
2009-08-31 09:01:10 51°21.595 2°51.169 -999 -999 -999 -999
2009-08-31 09:01:20 51°21.565 2°51.178 -999 -999 -999 -999
2009-08-31 09:01:30 51°21.536 2°51.188 -999 -999 -999 -999
2009-08-31 09:01:40 51°21.506 2°51.197 -999 -999 -999 -999
2009-08-31 09:01:50 51°21.477 2°51.206 -999 -999 -999 -999
2009-08-31 09:02:00 51°21.448 2°51.215 -999 -999 -999 -999
2009-08-31 09:02:10 51°21.418 2°51.224 -999 -999 -999 -999
2009-08-31 09:02:20 51°21.388 2°51.234 -999 -999 -999 -999
2009-08-31 09:02:30 51°21.359 2°51.243 -999 -999 -999 -999
2009-08-31 09:02:40 51°21.33 2°51.253 -999 -999 -999 -999
2009-08-31 09:02:50 51°21.3 2°51.263 -999 -999 -999 -999
2009-08-31 09:03:00 51°21.271 2°51.271 -999 -999 -999 -999
2009-08-31 09:03:10 51°21.241 2°51.279 -999 -999 -999 -999
2009-08-31 09:03:20 51°21.211 2°51.288 -999 -999 -999 -999
2009-08-31 09:03:30 51°21.182 2°51.295 -999 -999 -999 -999
2009-08-31 09:03:40 51°21.152 2°51.302 -999 -999 -999 -999
2009-08-31 09:03:50 51°21.122 2°51.309 -999 -999 -999 -999
2009-08-31 09:04:00 51°21.093 2°51.316 -999 -999 -999 -999
2009-08-31 09:04:10 51°21.063 2°51.324 -999 -999 -999 -999
2009-08-31 09:04:20 51°21.033 2°51.331 -999 -999 -999 -999
2009-08-31 09:04:30 51°21.004 2°51.339 -999 -999 -999 -999
2009-08-31 09:04:40 51°20.974 2°51.346 -999 -999 -999 -999
2009-08-31 09:04:50 51°20.945 2°51.352 -999 -999 -999 -999
2009-08-31 09:05:00 51°20.915 2°51.36 -999 -999 -999 -999
2009-08-31 09:05:10 51°20.886 2°51.366 -999 -999 -999 -999
2009-08-31 09:05:20 51°20.856 2°51.374 -999 -999 -999 -999
2009-08-31 09:05:30 51°20.827 2°51.381 -999 -999 -999 -999
2009-08-31 09:05:40 51°20.797 2°51.389 -999 -999 -999 -999
2009-08-31 09:05:50 51°20.767 2°51.396 -999 -999 -999 -999
2009-08-31 09:06:00 51°20.738 2°51.405 -999 -999 -999 -999
2009-08-31 09:06:10 51°20.708 2°51.411 -999 -999 -999 -999
2009-08-31 09:06:20 51°20.679 2°51.42 -999 -999 -999 -999
2009-08-31 09:06:30 51°20.649 2°51.428 -999 -999 -999 -999
2009-08-31 09:06:40 51°20.619 2°51.435 -999 -999 -999 -999
2009-08-31 09:06:50 51°20.589 2°51.443 -999 -999 -999 -999
2009-08-31 09:07:00 51°20.56 2°51.45 -999 -999 -999 -999
2009-08-31 09:07:10 51°20.53 2°51.458 -999 -999 -999 -999
2009-08-31 09:07:20 51°20.5 2°51.465 -999 -999 -999 -999
2009-08-31 09:07:30 51°20.471 2°51.473 -999 -999 -999 -999
2009-08-31 09:07:40 51°20.441 2°51.481 -999 -999 -999 -999
2009-08-31 09:07:50 51°20.412 2°51.489 -999 -999 -999 -999
2009-08-31 09:08:00 51°20.382 2°51.497 -999 -999 -999 -999
2009-08-31 09:08:10 51°20.352 2°51.505 -999 -999 -999 -999
2009-08-31 09:08:20 51°20.323 2°51.512 -999 -999 -999 -999
2009-08-31 09:08:30 51°20.293 2°51.52 -999 -999 -999 -999
2009-08-31 09:08:40 51°20.263 2°51.527 -999 -999 -999 -999
2009-08-31 09:08:50 51°20.233 2°51.534 -999 -999 -999 -999
2009-08-31 09:09:00 51°20.204 2°51.541 -999 -999 -999 -999
2009-08-31 09:09:10 51°20.174 2°51.549 -999 -999 -999 -999
2009-08-31 09:09:20 51°20.144 2°51.557 -999 -999 -999 -999
2009-08-31 09:09:30 51°20.114 2°51.565 -999 -999 -999 -999
2009-08-31 09:09:40 51°20.085 2°51.573 -999 -999 -999 -999
2009-08-31 09:09:50 51°20.055 2°51.58 -999 -999 -999 -999
2009-08-31 09:10:00 51°20.026 2°51.588 -999 -999 -999 -999
2009-08-31 09:10:10 51°19.996 2°51.595 -999 -999 -999 -999
2009-08-31 09:10:20 51°19.966 2°51.603 -999 -999 -999 -999
2009-08-31 09:10:30 51°19.937 2°51.61 -999 -999 -999 -999
2009-08-31 09:10:40 51°19.907 2°51.618 -999 -999 -999 -999
2009-08-31 09:10:50 51°19.877 2°51.624 -999 -999 -999 -999
2009-08-31 09:11:00 51°19.848 2°51.631 -999 -999 -999 -999
2009-08-31 09:11:10 51°19.818 2°51.638 -999 -999 -999 -999
2009-08-31 09:11:20 51°19.788 2°51.645 -999 -999 -999 -999
2009-08-31 09:11:30 51°19.758 2°51.652 -999 -999 -999 -999
2009-08-31 09:11:40 51°19.728 2°51.659 -999 -999 -999 -999
2009-08-31 09:11:50 51°19.699 2°51.666 -999 -999 -999 -999
2009-08-31 09:12:00 51°19.669 2°51.673 -999 -999 -999 -999
2009-08-31 09:12:10 51°19.64 2°51.679 -999 -999 -999 -999
2009-08-31 09:12:20 51°19.611 2°51.687 -999 -999 -999 -999
2009-08-31 09:12:30 51°19.581 2°51.695 -999 -999 -999 -999
2009-08-31 09:12:40 51°19.552 2°51.702 -999 -999 -999 -999
2009-08-31 09:12:50 51°19.523 2°51.711 -999 -999 -999 -999
2009-08-31 09:13:00 51°19.494 2°51.719 -999 -999 -999 -999
2009-08-31 09:13:10 51°19.464 2°51.727 -999 -999 -999 -999
2009-08-31 09:13:20 51°19.435 2°51.735 -999 -999 -999 -999
2009-08-31 09:13:30 51°19.406 2°51.744 -999 -999 -999 -999
2009-08-31 09:13:40 51°19.377 2°51.752 -999 -999 -999 -999
2009-08-31 09:13:50 51°19.348 2°51.759 -999 -999 -999 -999
2009-08-31 09:14:00 51°19.319 2°51.767 -999 -999 -999 -999
2009-08-31 09:14:10 51°19.29 2°51.775 -999 -999 -999 -999
2009-08-31 09:14:20 51°19.261 2°51.783 -999 -999 -999 -999
2009-08-31 09:14:30 51°19.232 2°51.791 -999 -999 -999 -999
2009-08-31 09:14:40 51°19.203 2°51.799 -999 -999 -999 -999
2009-08-31 09:14:50 51°19.174 2°51.807 -999 -999 -999 -999
2009-08-31 09:15:00 51°19.145 2°51.815 -999 -999 -999 -999
2009-08-31 09:15:10 51°19.116 2°51.823 -999 -999 -999 -999
2009-08-31 09:15:20 51°19.087 2°51.831 -999 -999 -999 -999
2009-08-31 09:15:30 51°19.058 2°51.838 -999 -999 -999 -999
2009-08-31 09:15:40 51°19.029 2°51.845 -999 -999 -999 -999
2009-08-31 09:15:50 51°18.999 2°51.852 -999 -999 -999 -999
2009-08-31 09:16:00 51°18.97 2°51.86 -999 -999 -999 -999
2009-08-31 09:16:10 51°18.941 2°51.867 -999 -999 -999 -999
2009-08-31 09:16:20 51°18.912 2°51.876 -999 -999 -999 -999
2009-08-31 09:16:30 51°18.883 2°51.883 -999 -999 -999 -999
2009-08-31 09:16:40 51°18.854 2°51.891 -999 -999 -999 -999
2009-08-31 09:16:50 51°18.825 2°51.897 -999 -999 -999 -999
2009-08-31 09:17:00 51°18.795 2°51.904 -999 -999 -999 -999
2009-08-31 09:17:10 51°18.766 2°51.912 -999 -999 -999 -999
2009-08-31 09:17:20 51°18.737 2°51.919 -999 -999 -999 -999
2009-08-31 09:17:30 51°18.708 2°51.925 -999 -999 -999 -999
2009-08-31 09:17:40 51°18.679 2°51.93 -999 -999 -999 -999
2009-08-31 09:17:50 51°18.65 2°51.935 -999 -999 -999 -999
2009-08-31 09:18:00 51°18.621 2°51.941 -999 -999 -999 -999
2009-08-31 09:18:10 51°18.592 2°51.946 -999 -999 -999 -999
2009-08-31 09:18:20 51°18.562 2°51.95 -999 -999 -999 -999
2009-08-31 09:18:30 51°18.534 2°51.955 -999 -999 -999 -999
2009-08-31 09:18:40 51°18.504 2°51.959 -999 -999 -999 -999
2009-08-31 09:18:50 51°18.475 2°51.963 -999 -999 -999 -999
2009-08-31 09:19:00 51°18.446 2°51.968 -999 -999 -999 -999
2009-08-31 09:19:10 51°18.417 2°51.972 -999 -999 -999 -999
2009-08-31 09:19:20 51°18.387 2°51.977 -999 -999 -999 -999
2009-08-31 09:19:30 51°18.358 2°51.981 -999 -999 -999 -999
2009-08-31 09:19:40 51°18.329 2°51.984 -999 -999 -999 -999
2009-08-31 09:19:50 51°18.3 2°51.989 -999 -999 -999 -999
2009-08-31 09:20:00 51°18.271 2°51.993 -999 -999 -999 -999
2009-08-31 09:20:10 51°18.242 2°51.998 -999 -999 -999 -999
2009-08-31 09:20:20 51°18.212 2°52.003 -999 -999 -999 -999
2009-08-31 09:20:30 51°18.183 2°52.007 -999 -999 -999 -999
2009-08-31 09:20:40 51°18.153 2°52.012 -999 -999 -999 -999
2009-08-31 09:20:50 51°18.124 2°52.016 -999 -999 -999 -999
2009-08-31 09:21:00 51°18.095 2°52.021 -999 -999 -999 -999
2009-08-31 09:21:10 51°18.066 2°52.025 -999 -999 -999 -999
2009-08-31 09:21:20 51°18.036 2°52.029 -999 -999 -999 -999
2009-08-31 09:21:30 51°18.007 2°52.033 -999 -999 -999 -999
2009-08-31 09:21:40 51°17.977 2°52.037 -999 -999 -999 -999
2009-08-31 09:21:50 51°17.948 2°52.041 -999 -999 -999 -999
2009-08-31 09:22:00 51°17.919 2°52.045 -999 -999 -999 -999
2009-08-31 09:22:10 51°17.889 2°52.049 -999 -999 -999 -999
2009-08-31 09:22:20 51°17.86 2°52.052 -999 -999 -999 -999
2009-08-31 09:22:30 51°17.831 2°52.056 -999 -999 -999 -999
2009-08-31 09:22:40 51°17.802 2°52.061 -999 -999 -999 -999
2009-08-31 09:22:50 51°17.772 2°52.065 -999 -999 -999 -999
2009-08-31 09:23:00 51°17.743 2°52.069 -999 -999 -999 -999
2009-08-31 09:23:10 51°17.714 2°52.072 -999 -999 -999 -999
2009-08-31 09:23:20 51°17.685 2°52.075 -999 -999 -999 -999
2009-08-31 09:23:30 51°17.655 2°52.078 -999 -999 -999 -999
2009-08-31 09:23:40 51°17.626 2°52.083 -999 -999 -999 -999
2009-08-31 09:23:50 51°17.597 2°52.088 -999 -999 -999 -999
2009-08-31 09:24:00 51°17.568 2°52.095 -999 -999 -999 -999
2009-08-31 09:24:10 51°17.539 2°52.103 -999 -999 -999 -999
2009-08-31 09:24:20 51°17.51 2°52.111 -999 -999 -999 -999
2009-08-31 09:24:30 51°17.481 2°52.122 -999 -999 -999 -999
2009-08-31 09:24:40 51°17.453 2°52.134 -999 -999 -999 -999
2009-08-31 09:24:50 51°17.424 2°52.147 -999 -999 -999 -999
2009-08-31 09:25:00 51°17.396 2°52.161 -999 -999 -999 -999
2009-08-31 09:25:10 51°17.368 2°52.177 -999 -999 -999 -999
2009-08-31 09:25:20 51°17.34 2°52.192 -999 -999 -999 -999
2009-08-31 09:25:30 51°17.312 2°52.21 -999 -999 -999 -999
2009-08-31 09:25:40 51°17.284 2°52.227 -999 -999 -999 -999
2009-08-31 09:25:50 51°17.256 2°52.245 -999 -999 -999 -999
2009-08-31 09:26:00 51°17.229 2°52.263 -999 -999 -999 -999
2009-08-31 09:26:10 51°17.201 2°52.282 -999 -999 -999 -999
2009-08-31 09:26:20 51°17.174 2°52.302 -999 -999 -999 -999
2009-08-31 09:26:30 51°17.147 2°52.324 -999 -999 -999 -999
2009-08-31 09:26:40 51°17.12 2°52.347 -999 -999 -999 -999
2009-08-31 09:26:50 51°17.094 2°52.371 -999 -999 -999 -999
2009-08-31 09:27:00 51°17.068 2°52.394 -999 -999 -999 -999
2009-08-31 09:27:10 51°17.041 2°52.418 -999 -999 -999 -999
2009-08-31 09:27:20 51°17.015 2°52.443 -999 -999 -999 -999
2009-08-31 09:27:30 51°16.989 2°52.468 -999 -999 -999 -999
2009-08-31 09:27:40 51°16.964 2°52.493 -999 -999 -999 -999
2009-08-31 09:27:50 51°16.938 2°52.518 -999 -999 -999 -999
2009-08-31 09:28:00 51°16.911 2°52.542 -999 -999 -999 -999
2009-08-31 09:28:10 51°16.885 2°52.566 -999 -999 -999 -999
2009-08-31 09:28:20 51°16.859 2°52.59 -999 -999 -999 -999
2009-08-31 09:28:30 51°16.833 2°52.614 -999 -999 -999 -999
2009-08-31 09:28:40 51°16.806 2°52.638 -999 -999 -999 -999
2009-08-31 09:28:50 51°16.78 2°52.662 -999 -999 -999 -999
2009-08-31 09:29:00 51°16.754 2°52.686 -999 -999 -999 -999
2009-08-31 09:29:10 51°16.728 2°52.71 -999 -999 -999 -999
2009-08-31 09:29:20 51°16.701 2°52.733 -999 -999 -999 -999
2009-08-31 09:29:30 51°16.675 2°52.758 -999 -999 -999 -999
2009-08-31 09:29:40 51°16.648 2°52.78 -999 -999 -999 -999
2009-08-31 09:29:50 51°16.621 2°52.804 -999 -999 -999 -999
2009-08-31 09:30:00 51°16.594 2°52.828 -999 -999 -999 -999
2009-08-31 09:30:10 51°16.568 2°52.853 -999 -999 -999 -999
2009-08-31 09:30:20 51°16.541 2°52.876 -999 -999 -999 -999
2009-08-31 09:30:30 51°16.514 2°52.899 -999 -999 -999 -999
2009-08-31 09:30:40 51°16.487 2°52.924 -999 -999 -999 -999
2009-08-31 09:30:50 51°16.46 2°52.947 -999 -999 -999 -999
2009-08-31 09:31:00 51°16.433 2°52.97 -999 -999 -999 -999
2009-08-31 09:31:10 51°16.406 2°52.994 -999 -999 -999 -999
2009-08-31 09:31:20 51°16.38 2°53.018 -999 -999 -999 -999
2009-08-31 09:31:30 51°16.353 2°53.042 -999 -999 -999 -999
2009-08-31 09:31:40 51°16.326 2°53.066 -999 -999 -999 -999
2009-08-31 09:31:50 51°16.3 2°53.09 -999 -999 -999 -999
2009-08-31 09:32:00 51°16.273 2°53.115 -999 -999 -999 -999
2009-08-31 09:32:10 51°16.247 2°53.138 -999 -999 -999 -999
2009-08-31 09:32:20 51°16.22 2°53.162 -999 -999 -999 -999
2009-08-31 09:32:30 51°16.193 2°53.186 -999 -999 -999 -999
2009-08-31 09:32:40 51°16.167 2°53.211 -999 -999 -999 -999
2009-08-31 09:32:50 51°16.14 2°53.235 -999 -999 -999 -999
2009-08-31 09:33:00 51°16.113 2°53.258 -999 -999 -999 -999
2009-08-31 09:33:10 51°16.086 2°53.281 -999 -999 -999 -999
2009-08-31 09:33:20 51°16.059 2°53.304 -999 -999 -999 -999
2009-08-31 09:33:30 51°16.032 2°53.328 -999 -999 -999 -999
2009-08-31 09:33:40 51°16.005 2°53.352 -999 -999 -999 -999
2009-08-31 09:33:50 51°15.979 2°53.376 -999 -999 -999 -999
2009-08-31 09:34:00 51°15.952 2°53.4 -999 -999 -999 -999
2009-08-31 09:34:10 51°15.926 2°53.424 -999 -999 -999 -999
2009-08-31 09:34:20 51°15.899 2°53.449 -999 -999 -999 -999
2009-08-31 09:34:30 51°15.872 2°53.473 -999 -999 -999 -999
2009-08-31 09:34:40 51°15.846 2°53.497 -999 -999 -999 -999
2009-08-31 09:34:50 51°15.819 2°53.52 -999 -999 -999 -999
2009-08-31 09:35:00 51°15.791 2°53.543 -999 -999 -999 -999
2009-08-31 09:35:10 51°15.765 2°53.567 -999 -999 -999 -999
2009-08-31 09:35:20 51°15.738 2°53.589 -999 -999 -999 -999
2009-08-31 09:35:30 51°15.71 2°53.612 -999 -999 -999 -999
2009-08-31 09:35:40 51°15.683 2°53.635 -999 -999 -999 -999
2009-08-31 09:35:50 51°15.656 2°53.659 -999 -999 -999 -999
2009-08-31 09:36:00 51°15.63 2°53.683 -999 -999 -999 -999
2009-08-31 09:36:10 51°15.603 2°53.707 -999 -999 -999 -999
2009-08-31 09:36:20 51°15.576 2°53.73 -999 -999 -999 -999
2009-08-31 09:36:30 51°15.549 2°53.754 -999 -999 -999 -999
2009-08-31 09:36:40 51°15.522 2°53.777 -999 -999 -999 -999
2009-08-31 09:36:50 51°15.496 2°53.802 -999 -999 -999 -999
2009-08-31 09:37:00 51°15.471 2°53.829 -999 -999 -999 -999
2009-08-31 09:37:10 51°15.445 2°53.857 -999 -999 -999 -999
2009-08-31 09:37:20 51°15.42 2°53.885 -999 -999 -999 -999
2009-08-31 09:37:30 51°15.394 2°53.913 -999 -999 -999 -999
2009-08-31 09:37:40 51°15.369 2°53.942 -999 -999 -999 -999
2009-08-31 09:37:50 51°15.344 2°53.969 -999 -999 -999 -999
2009-08-31 09:38:00 51°15.318 2°53.995 -999 -999 -999 -999
2009-08-31 09:38:10 51°15.293 2°54.019 -999 -999 -999 -999
2009-08-31 09:38:20 51°15.273 2°54.04 -999 -999 -999 -999
2009-08-31 09:38:30 51°15.255 2°54.057 -999 -999 -999 -999
2009-08-31 09:38:40 51°15.24 2°54.073 -999 -999 -999 -999
2009-08-31 09:38:50 51°15.228 2°54.09 -999 -999 -999 -999
2009-08-31 09:39:00 51°15.218 2°54.106 -999 -999 -999 -999
2009-08-31 09:39:10 51°15.209 2°54.123 -999 -999 -999 -999
2009-08-31 09:39:20 51°15.202 2°54.14 -999 -999 -999 -999
2009-08-31 09:39:30 51°15.196 2°54.156 -999 -999 -999 -999
2009-08-31 09:39:40 51°15.191 2°54.173 -999 -999 -999 -999
2009-08-31 09:39:50 51°15.187 2°54.189 -999 -999 -999 -999
2009-08-31 09:40:00 51°15.182 2°54.205 -999 -999 -999 -999
2009-08-31 09:40:10 51°15.179 2°54.22 -999 -999 -999 -999
2009-08-31 09:40:20 51°15.175 2°54.236 -999 -999 -999 -999
2009-08-31 09:40:30 51°15.172 2°54.25 -999 -999 -999 -999
2009-08-31 09:40:40 51°15.169 2°54.265 -999 -999 -999 -999
2009-08-31 09:40:50 51°15.166 2°54.279 -999 -999 -999 -999
2009-08-31 09:41:00 51°15.163 2°54.292 -999 -999 -999 -999
2009-08-31 09:41:10 51°15.16 2°54.306 -999 -999 -999 -999
2009-08-31 09:41:20 51°15.157 2°54.319 -999 -999 -999 -999
2009-08-31 09:41:30 51°15.155 2°54.332 -999 -999 -999 -999
2009-08-31 09:41:40 51°15.152 2°54.344 -999 -999 -999 -999
2009-08-31 09:41:50 51°15.15 2°54.357 -999 -999 -999 -999
2009-08-31 09:42:00 51°15.147 2°54.369 -999 -999 -999 -999
2009-08-31 09:42:10 51°15.145 2°54.38 -999 -999 -999 -999
2009-08-31 09:42:20 51°15.143 2°54.392 -999 -999 -999 -999
2009-08-31 09:42:30 51°15.141 2°54.404 -999 -999 -999 -999
2009-08-31 09:42:40 51°15.138 2°54.415 -999 -999 -999 -999
2009-08-31 09:42:50 51°15.136 2°54.427 -999 -999 -999 -999
2009-08-31 09:43:00 51°15.134 2°54.438 -999 -999 -999 -999
2009-08-31 09:43:10 51°15.132 2°54.449 -999 -999 -999 -999
2009-08-31 09:43:20 51°15.13 2°54.46 -999 -999 -999 -999
2009-08-31 09:43:30 51°15.128 2°54.471 -999 -999 -999 -999
2009-08-31 09:43:40 51°15.126 2°54.481 -999 -999 -999 -999
2009-08-31 09:43:50 51°15.124 2°54.491 -999 -999 -999 -999
2009-08-31 09:44:00 51°15.122 2°54.501 -999 -999 -999 -999
2009-08-31 09:44:10 51°15.12 2°54.511 -999 -999 -999 -999
2009-08-31 09:44:20 51°15.118 2°54.521 -999 -999 -999 -999
2009-08-31 09:44:30 51°15.115 2°54.531 -999 -999 -999 -999
2009-08-31 09:44:40 51°15.113 2°54.541 -999 -999 -999 -999
2009-08-31 09:44:50 51°15.11 2°54.551 -999 -999 -999 -999
2009-08-31 09:45:00 51°15.105 2°54.562 -999 -999 -999 -999
2009-08-31 09:45:10 51°15.099 2°54.575 -999 -999 -999 -999
2009-08-31 09:45:20 51°15.09 2°54.59 -999 -999 -999 -999
2009-08-31 09:45:30 51°15.08 2°54.605 -999 -999 -999 -999
2009-08-31 09:45:40 51°15.069 2°54.62 -999 -999 -999 -999
2009-08-31 09:45:50 51°15.059 2°54.634 -999 -999 -999 -999
2009-08-31 09:46:00 51°15.05 2°54.647 -999 -999 -999 -999
2009-08-31 09:46:10 51°15.042 2°54.66 -999 -999 -999 -999
2009-08-31 09:46:20 51°15.035 2°54.674 -999 -999 -999 -999
2009-08-31 09:46:30 51°15.028 2°54.687 -999 -999 -999 -999
2009-08-31 09:46:40 51°15.021 2°54.699 -999 -999 -999 -999
2009-08-31 09:46:50 51°15.016 2°54.712 -999 -999 -999 -999
2009-08-31 09:47:00 51°15.011 2°54.724 -999 -999 -999 -999
2009-08-31 09:47:10 51°15.006 2°54.737 -999 -999 -999 -999
2009-08-31 09:47:20 51°15.001 2°54.749 -999 -999 -999 -999
2009-08-31 09:47:30 51°14.996 2°54.76 -999 -999 -999 -999
2009-08-31 09:47:40 51°14.992 2°54.772 -999 -999 -999 -999
2009-08-31 09:47:50 51°14.988 2°54.782 -999 -999 -999 -999
2009-08-31 09:48:00 51°14.983 2°54.793 -999 -999 -999 -999
2009-08-31 09:48:10 51°14.979 2°54.803 -999 -999 -999 -999
2009-08-31 09:48:20 51°14.975 2°54.812 -999 -999 -999 -999
2009-08-31 09:48:30 51°14.971 2°54.822 -999 -999 -999 -999
2009-08-31 09:48:40 51°14.967 2°54.83 -999 -999 -999 -999
2009-08-31 09:48:50 51°14.963 2°54.838 -999 -999 -999 -999
2009-08-31 09:49:00 51°14.959 2°54.846 -999 -999 -999 -999
2009-08-31 09:49:10 51°14.955 2°54.853 -999 -999 -999 -999
2009-08-31 09:49:20 51°14.952 2°54.86 -999 -999 -999 -999
2009-08-31 09:49:30 51°14.948 2°54.867 -999 -999 -999 -999
2009-08-31 09:49:40 51°14.944 2°54.874 -999 -999 -999 -999
2009-08-31 09:49:50 51°14.941 2°54.88 -999 -999 -999 -999
2009-08-31 09:50:00 51°14.937 2°54.886 -999 -999 -999 -999
2009-08-31 09:50:10 51°14.934 2°54.892 -999 -999 -999 -999
2009-08-31 09:50:20 51°14.93 2°54.898 -999 -999 -999 -999
2009-08-31 09:50:30 51°14.927 2°54.904 -999 -999 -999 -999
2009-08-31 09:50:40 51°14.923 2°54.91 -999 -999 -999 -999
2009-08-31 09:50:50 51°14.92 2°54.916 -999 -999 -999 -999
2009-08-31 09:51:00 51°14.916 2°54.921 -999 -999 -999 -999
2009-08-31 09:51:10 51°14.912 2°54.927 -999 -999 -999 -999
2009-08-31 09:51:20 51°14.909 2°54.932 -999 -999 -999 -999
2009-08-31 09:51:30 51°14.905 2°54.937 -999 -999 -999 -999
2009-08-31 09:51:40 51°14.902 2°54.943 -999 -999 -999 -999
2009-08-31 09:51:50 51°14.898 2°54.948 -999 -999 -999 -999
2009-08-31 09:52:00 51°14.895 2°54.953 -999 -999 -999 -999
2009-08-31 09:52:10 51°14.891 2°54.959 -999 -999 -999 -999
2009-08-31 09:52:20 51°14.888 2°54.964 -999 -999 -999 -999
2009-08-31 09:52:30 51°14.884 2°54.97 -999 -999 -999 -999
2009-08-31 09:52:40 51°14.881 2°54.975 -999 -999 -999 -999
2009-08-31 09:52:50 51°14.877 2°54.982 -999 -999 -999 -999
2009-08-31 09:53:00 51°14.874 2°54.988 -999 -999 -999 -999
2009-08-31 09:53:10 51°14.87 2°54.994 -999 -999 -999 -999
2009-08-31 09:53:20 51°14.867 2°54.999 -999 -999 -999 -999
2009-08-31 09:53:30 51°14.863 2°55.004 -999 -999 -999 -999
2009-08-31 09:53:40 51°14.859 2°55.009 -999 -999 -999 -999
2009-08-31 09:53:50 51°14.856 2°55.013 -999 -999 -999 -999
2009-08-31 09:54:00 51°14.853 2°55.017 -999 -999 -999 -999
2009-08-31 09:54:10 51°14.849 2°55.02 -999 -999 -999 -999
2009-08-31 09:54:20 51°14.846 2°55.024 -999 -999 -999 -999
2009-08-31 09:54:30 51°14.843 2°55.027 -999 -999 -999 -999
2009-08-31 09:54:40 51°14.839 2°55.03 -999 -999 -999 -999
2009-08-31 09:54:50 51°14.836 2°55.032 -999 -999 -999 -999
2009-08-31 09:55:00 51°14.833 2°55.035 -999 -999 -999 -999
2009-08-31 09:55:10 51°14.829 2°55.037 -999 -999 -999 -999
2009-08-31 09:55:20 51°14.826 2°55.039 -999 -999 -999 -999
2009-08-31 09:55:30 51°14.823 2°55.041 -999 -999 -999 -999
2009-08-31 09:55:40 51°14.82 2°55.043 -999 -999 -999 -999
2009-08-31 09:55:50 51°14.817 2°55.044 -999 -999 -999 -999
2009-08-31 09:56:00 51°14.814 2°55.045 -999 -999 -999 -999
2009-08-31 09:56:10 51°14.811 2°55.046 -999 -999 -999 -999
2009-08-31 09:56:20 51°14.808 2°55.047 -999 -999 -999 -999
2009-08-31 09:56:30 51°14.805 2°55.047 -999 -999 -999 -999
2009-08-31 09:56:40 51°14.802 2°55.048 -999 -999 -999 -999
2009-08-31 09:56:50 51°14.799 2°55.049 -999 -999 -999 -999
2009-08-31 09:57:00 51°14.796 2°55.05 -999 -999 -999 -999
2009-08-31 09:57:10 51°14.793 2°55.051 -999 -999 -999 -999
2009-08-31 09:57:20 51°14.79 2°55.053 -999 -999 -999 -999
2009-08-31 09:57:30 51°14.786 2°55.054 -999 -999 -999 -999
2009-08-31 09:57:40 51°14.78 2°55.055 -999 -999 -999 -999
2009-08-31 09:57:50 51°14.771 2°55.053 -999 -999 -999 -999
2009-08-31 09:58:00 51°14.759 2°55.051 -999 -999 -999 -999
2009-08-31 09:58:10 51°14.745 2°55.047 -999 -999 -999 -999
2009-08-31 09:58:20 51°14.73 2°55.042 -999 -999 -999 -999
2009-08-31 09:58:30 51°14.713 2°55.037 -999 -999 -999 -999
2009-08-31 09:58:40 51°14.694 2°55.032 -999 -999 -999 -999
2009-08-31 09:58:50 51°14.674 2°55.028 -999 -999 -999 -999
2009-08-31 09:59:00 51°14.654 2°55.023 -999 -999 -999 -999
2009-08-31 09:59:10 51°14.634 2°55.019 -999 -999 -999 -999
2009-08-31 09:59:20 51°14.612 2°55.014 -999 -999 -999 -999
2009-08-31 09:59:30 51°14.591 2°55.009 -999 -999 -999 -999
2009-08-31 09:59:40 51°14.569 2°55.005 -999 -999 -999 -999
2009-08-31 09:59:50 51°14.548 2°55.002 -999 -999 -999 -999
2009-08-31 10:00:00 51°14.526 2°55.001 -999 -999 -999 -999
2009-08-31 10:00:10 51°14.504 2°55.002 -999 -999 -999 -999
2009-08-31 10:00:20 51°14.481 2°55.005 -999 -999 -999 -999
2009-08-31 10:00:30 51°14.46 2°55.013 -999 -999 -999 -999
2009-08-31 10:00:40 51°14.438 2°55.024 -999 -999 -999 -999
2009-08-31 10:00:50 51°14.417 2°55.038 -999 -999 -999 -999
2009-08-31 10:01:00 51°14.397 2°55.056 -999 -999 -999 -999
2009-08-31 10:01:10 51°14.377 2°55.075 -999 -999 -999 -999
2009-08-31 10:01:20 51°14.358 2°55.095 -999 -999 -999 -999
2009-08-31 10:01:30 51°14.339 2°55.117 -999 -999 -999 -999
2009-08-31 10:01:40 51°14.322 2°55.143 -999 -999 -999 -999
2009-08-31 10:01:50 51°14.306 2°55.17 -999 -999 -999 -999
2009-08-31 10:02:00 51°14.289 2°55.197 -999 -999 -999 -999
2009-08-31 10:02:10 51°14.271 2°55.224 -999 -999 -999 -999
2009-08-31 10:02:20 51°14.255 2°55.251 -999 -999 -999 -999
2009-08-31 10:02:30 51°14.237 2°55.278 -999 -999 -999 -999
2009-08-31 10:02:40 51°14.22 2°55.304 -999 -999 -999 -999
2009-08-31 10:02:50 51°14.202 2°55.331 -999 -999 -999 -999
2009-08-31 10:03:00 51°14.184 2°55.354 -999 -999 -999 -999
2009-08-31 10:03:10 51°14.165 2°55.376 -999 -999 -999 -999
2009-08-31 10:03:20 51°14.145 2°55.395 -999 -999 -999 -999
2009-08-31 10:03:30 51°14.124 2°55.413 -999 -999 -999 -999
2009-08-31 10:03:40 51°14.103 2°55.429 -999 -999 -999 -999
2009-08-31 10:03:50 51°14.083 2°55.444 -999 -999 -999 -999
2009-08-31 10:04:00 51°14.064 2°55.458 -999 -999 -999 -999
2009-08-31 10:04:10 51°14.045 2°55.472 -999 -999 -999 -999
2009-08-31 10:04:20 51°14.027 2°55.485 -999 -999 -999 -999
2009-08-31 10:04:30 51°14.011 2°55.497 -999 -999 -999 -999
2009-08-31 10:04:40 51°13.994 2°55.509 -999 -999 -999 -999
2009-08-31 10:04:50 51°13.977 2°55.52 -999 -999 -999 -999
2009-08-31 10:05:00 51°13.96 2°55.531 -999 -999 -999 -999
2009-08-31 10:05:10 51°13.943 2°55.543 -999 -999 -999 -999
2009-08-31 10:05:20 51°13.926 2°55.556 -999 -999 -999 -999
2009-08-31 10:05:30 51°13.909 2°55.569 -999 -999 -999 -999
2009-08-31 10:05:40 51°13.893 2°55.581 -999 -999 -999 -999
2009-08-31 10:05:50 51°13.876 2°55.594 -999 -999 -999 -999
2009-08-31 10:06:00 51°13.859 2°55.606 -999 -999 -999 -999
2009-08-31 10:06:10 51°13.842 2°55.619 -999 -999 -999 -999
2009-08-31 10:06:20 51°13.827 2°55.632 -999 -999 -999 -999
2009-08-31 10:06:30 51°13.811 2°55.646 -999 -999 -999 -999
2009-08-31 10:06:40 51°13.797 2°55.661 -999 -999 -999 -999
2009-08-31 10:06:50 51°13.783 2°55.676 -999 -999 -999 -999
2009-08-31 10:07:00 51°13.772 2°55.692 -999 -999 -999 -999
2009-08-31 10:07:10 51°13.762 2°55.709 -999 -999 -999 -999
2009-08-31 10:07:20 51°13.752 2°55.725 -999 -999 -999 -999
2009-08-31 10:07:30 51°13.744 2°55.741 -999 -999 -999 -999
2009-08-31 10:07:40 51°13.737 2°55.756 -999 -999 -999 -999
2009-08-31 10:07:50 51°13.73 2°55.77 -999 -999 -999 -999
2009-08-31 10:08:00 51°13.724 2°55.785 -999 -999 -999 -999
2009-08-31 10:08:10 51°13.718 2°55.798 -999 -999 -999 -999
2009-08-31 10:08:20 51°13.712 2°55.811 -999 -999 -999 -999
2009-08-31 10:08:30 51°13.707 2°55.823 -999 -999 -999 -999
2009-08-31 10:08:40 51°13.702 2°55.835 -999 -999 -999 -999
2009-08-31 10:08:50 51°13.697 2°55.846 -999 -999 -999 -999
2009-08-31 10:09:00 51°13.692 2°55.857 -999 -999 -999 -999
2009-08-31 10:09:10 51°13.688 2°55.867 -999 -999 -999 -999
2009-08-31 10:09:20 51°13.684 2°55.877 -999 -999 -999 -999
2009-08-31 10:09:30 51°13.68 2°55.885 -999 -999 -999 -999
2009-08-31 10:09:40 51°13.677 2°55.894 -999 -999 -999 -999
2009-08-31 10:09:50 51°13.673 2°55.902 -999 -999 -999 -999
2009-08-31 10:10:00 51°13.67 2°55.91 -999 -999 -999 -999
2009-08-31 10:10:10 51°13.668 2°55.919 -999 -999 -999 -999
2009-08-31 10:10:20 51°13.667 2°55.928 -999 -999 -999 -999
2009-08-31 10:10:30 51°13.666 2°55.934 -999 -999 -999 -999
2009-08-31 10:10:40 51°13.666 2°55.939 -999 -999 -999 -999
2009-08-31 10:10:50 51°13.666 2°55.941 -999 -999 -999 -999
2009-08-31 10:11:00 51°13.666 2°55.943 -999 -999 -999 -999
2009-08-31 10:11:10 51°13.666 2°55.945 -999 -999 -999 -999
2009-08-31 10:11:20 51°13.666 2°55.946 -999 -999 -999 -999
2009-08-31 10:11:30 51°13.666 2°55.947 -999 -999 -999 -999
2009-08-31 10:11:40 51°13.666 2°55.948 -999 -999 -999 -999
2009-08-31 10:11:50 51°13.666 2°55.949 -999 -999 -999 -999
2009-08-31 10:12:00 51°13.666 2°55.951 -999 -999 -999 -999
2009-08-31 10:12:10 51°13.665 2°55.952 -999 -999 -999 -999
2009-08-31 10:12:20 51°13.665 2°55.954 -999 -999 -999 -999
2009-08-31 10:12:30 51°13.665 2°55.955 -999 -999 -999 -999
2009-08-31 10:12:40 51°13.664 2°55.957 -999 -999 -999 -999
2009-08-31 10:12:50 51°13.664 2°55.958 -999 -999 -999 -999
2009-08-31 10:13:00 51°13.663 2°55.958 -999 -999 -999 -999
2009-08-31 10:13:10 51°13.662 2°55.959 -999 -999 -999 -999
2009-08-31 10:13:20 51°13.662 2°55.959 -999 -999 -999 -999
2009-08-31 10:13:30 51°13.663 2°55.959 -999 -999 -999 -999
2009-08-31 10:13:40 51°13.663 2°55.959 -999 -999 -999 -999
2009-08-31 10:13:50 51°13.663 2°55.959 -999 -999 -999 -999
2009-08-31 10:14:00 51°13.663 2°55.959 -999 -999 -999 -999
2009-08-31 10:14:10 51°13.662 2°55.959 -999 -999 -999 -999
2009-08-31 10:14:20 51°13.662 2°55.959 -999 -999 -999 -999
2009-08-31 10:14:30 51°13.662 2°55.959 -999 -999 -999 -999
2009-08-31 10:14:40 51°13.663 2°55.959 -999 -999 -999 -999
2009-08-31 10:14:50 51°13.663 2°55.959 -999 -999 -999 -999
2009-08-31 10:15:00 51°13.663 2°55.959 -999 -999 -999 -999
2009-08-31 10:15:10 51°13.663 2°55.959 -999 -999 -999 -999
2009-08-31 10:15:20 51°13.663 2°55.959 -999 -999 -999 -999
2009-08-31 10:15:30 51°13.663 2°55.959 -999 -999 -999 -999
2009-08-31 10:15:40 51°13.663 2°55.959 -999 -999 -999 -999
2009-08-31 10:15:50 51°13.663 2°55.959 -999 -999 -999 -999
2009-08-31 10:16:00 51°13.663 2°55.959 -999 -999 -999 -999
2009-08-31 10:16:10 51°13.663 2°55.959 -999 -999 -999 -999
2009-08-31 10:16:20 51°13.663 2°55.959 -999 -999 -999 -999
2009-08-31 10:16:30 51°13.663 2°55.959 -999 -999 -999 -999
2009-08-31 10:16:40 51°13.663 2°55.959 -999 -999 -999 -999
2009-08-31 10:16:50 51°13.663 2°55.959 -999 -999 -999 -999